COSMOS 2251 DEB, 33982

Orbit data source: Space-Track

COSMOS 2251 DEB, 33982 is space debris in LEO originally from a launch on Wed, 16 Jun 1993 UTC launched from the Plesetsk Missile And Space Complex (PKMTR). The debris from Iridium 33, an American commercial communications satellite, has been tracked extensively since its accidental collision with the defunct Russian satellite Cosmos 2251 in 2009. This event, occurring at high speed in low Earth orbit (LEO), generated thousands of pieces of space debris, significantly increasing the risk of further collisions. The Iridium 33 debris cloud has impacted space traffic management and orbital debris mitigation strategies, making it a subject of ongoing study in space situational awareness.

Loading next visibility...
Identifier
33982, 1993-036FR
Orbit
LEO
Country
Flag of CISCIS
Related business
Manufacturer
Unknown
Mission
Spacecraft
Bus & Motor
Unknown
Mass
Unknown
Launch date (UTC)
1993-06-16 (33 years ago)
Launch vehicle
Unknown
Launch site
Plesetsk Missile And Space Complex (PKMTR)
Object type
Payload
Rocket body
Debris
Shape & HBR
Unknown shape, 0.1 m
Radar Cross Section
Medium (>0.1 m² and <1 m²)

Expand to show TLE details & history
Last TLE update: 5 hours ago

TLE from 5 hours ago
0 COSMOS 2251 DEB
1 33982U 93036FR  26264.89475392  .00000778  00000-0  15773-3 0  9991
2 33982  74.0699 179.9049 0074059 152.2689 280.2478 14.61306964932947
Epoch: 2026-09-21T21:28Z
TLE epoch observation values (Epoch: 2026-09-21T21:28:26.738Z)
Latitude
66.0019°
Longitude
-103.35536°
Altitude
691.07 km
Speed
7.522 km/s
True Right ascension
14h 38m 05s
True Declination
65° 52' 21"
Sunlit
Object was in daylight at epoch
Visualization orbit readout
Latitude
Unknown
Longitude
Unknown
Altitude
Unknown
Speed
Unknown
Apparent Right ascension
Unknown
Apparent Declination
Unknown
Sunlit
N/A
Visualization observer readout
Local Sidereal Time
19:59:55
Azimuth
Unknown
Elevation
Unknown
Doppler factor
Unknown
Orbital elements
Apogee altitude
738.87 km
Perigee altitude
634.23 km
Semi-major axis
7,064.687 km
Eccentricity
0.00741
Inclination
74.0699°
RAAN
179.9049°
Arg. of periapsis
152.2689°
True anomaly
279.41134°
Mean anomaly
280.2478°
Eccentric anomaly
279.8297°
Mean motion
3.65514 °/min
Orbital period
98.49 mins
BSTAR
0.00015773

Documentation

Showing up to 5 results
|